Regional Weather Roundup
Issued by NWS

Home | Current Version | Previous Version | Text Only | Print | Product List | Glossary Off
Versions: 1 2 3 4 5 6 7 8 9 10 11 12 13 14 15 16 17 18 19 20 21 22 23 24 25 26 27 28 29 30 31 32 33 34 35 36 37 38 39 40 41 42 43 44 45 46 47 48 49 50

000
ASUS43 KLOT 281810
RWRIL

ILLINOIS REGIONAL WEATHER ROUNDUP
NATIONAL WEATHER SERVICE CHICAGO/ROMEOVILLE IL
1200 PM CST SAT FEB 28 2015

NOTE: "FAIR" INDICATES FEW OR NO CLOUDS BELOW 12,000 FEET WITH NO
SIGNIFICANT WEATHER AND/OR OBSTRUCTIONS TO VISIBILITY.

* THESE STATIONS ARE NOT UNDER NWS QUALITY CONTROL. THEY ALSO MAY NOT
  REPORT WEATHER SUCH AS PRECIPITATION OR FOG.

ILZ001-002-007-009-015-016-024-281900-
NORTHWEST ILLINOIS

CITY           SKY/WX    TMP DP  RH WIND       PRES   REMARKS
MOLINE         SUNNY     15   0  51 SE10      30.63F WCI   2
6HR MIN TEMP: -15; 6HR MAX TEMP:  15;

STERLING*      SUNNY     16   5  62 SE10      30.65F WCI   3
SAVANNA*       SUNNY     14   2  58 CALM      30.66F
$$

ILZ003-004-008-010-011-017-018-281900-
NORTH CENTRAL ILLINOIS

CITY           SKY/WX    TMP DP  RH WIND       PRES   REMARKS
ROCKFORD       MOSUNNY   13   1  59 SE8       30.67F WCI   2
6HR MIN TEMP: -16; 6HR MAX TEMP:  13;

FREEPORT*      SUNNY     10   0  64 SE3       30.66F
ROCHELLE*      SUNNY     12   2  65 SE9       30.66F WCI   0
DE KALB*       SUNNY     10   0  63 SE9       30.66F WCI  -3
PERU*          SUNNY     19   3  49 SE6       30.66F WCI  11
$$

ILZ005-006-012>014-019>023-281900-
NORTHEAST ILLINOIS

CITY           SKY/WX    TMP DP  RH WIND       PRES   REMARKS
CHICAGO-OHARE  SUNNY     17   2  51 SE8       30.67F WCI   7
6HR MIN TEMP:  -8; 6HR MAX TEMP:  17;

CHICAGO-MIDWAY MOSUNNY   19   1  45 S8        30.68F WCI   9
6HR MIN TEMP:   1; 6HR MAX TEMP:  19;

AURORA         SUNNY     16   1  51 SE12      30.67F WCI   3
6HR MIN TEMP: -15; 6HR MAX TEMP:  16;

LANSING*       CLOUDY    17   2  50 SE6       30.69F WCI   9
JOLIET*        SUNNY     14   0  53 SE8       30.68F WCI   3
WAUKEGAN       SUNNY     16   0  49 S12       30.67F WCI   3
6HR MIN TEMP:  -8; 6HR MAX TEMP:  16;

DUPAGE AIRPORT SUNNY     16   1  51 S12       30.66F WCI   3
6HR MIN TEMP: -12; 6HR MAX TEMP:  16;

KANKAKEE*      SUNNY     18   6  61 SE8       30.67F WCI   7
WHEELING       SUNNY     16  -1  47 S6        30.70F WCI   7
6HR MIN TEMP: -12; 6HR MAX TEMP:  16;

MORRIS*        SUNNY     13  10  88 CALM      30.66F
ROMEOVILLE*    SUNNY     16   1  51 S8        30.67F WCI   5
NORTHERLY ISL    N/A     19   5  54 SE8         N/A  WCI   9
$$

LMZ740>746-281900-
SOUTHERN LAKE MICHIGAN

STATION/POSITION SKY/WX   TEMP    WIND        PRES    VSBY  WAVE
                          AIR SEA DIR/SP/G                  HT/PER
                          (F)     (DEG/KT/KT) (MB)    (MI)  (FT/S)
WAUKEGAN HARBOR            18     150/  7/ 10   N/A
HARRISON CRIB              15     140/  9/ 12   N/A
BURNHAM HARBOR             20     150/  4/  8   N/A
CALUMET HARBOR             17     140/  8/ 10 1038.0F
MICHIGAN CITY              15     130/  9/ 10   N/A
$$

ILZ025>027-034>036-040-047-049-050-058-095>099-281900-
WEST-CENTRAL ILLINOIS

CITY           SKY/WX    TMP DP  RH WIND       PRES   REMARKS
QUINCY         PTSUNNY   21   5  50 SE8       30.57F WCI  11
GALESBURG*     SUNNY     19   5  54 S7        30.61F WCI   9
MACOMB*        SUNNY     20   8  60 E7        30.63S WCI  11
JACKSONVILLE*  MOSUNNY   22  11  61 E8        30.61F WCI  13
PITTSFIELD*    SUNNY     23   8  51 SE7       30.59F WCI  15
$$

ILZ028>032-037-038-041>044-048-051>054-059>061-281900-
CENTRAL ILLINOIS

CITY           SKY/WX    TMP DP  RH WIND       PRES   REMARKS
PONTIAC        SUNNY     16   8  71 E9        30.67F WCI   4
BLOOMINGTON    SUNNY     22   9  57 S12       30.62F WCI  11
DECATUR        SUNNY     21  10  62 E10       30.62F WCI  10
PEORIA         SUNNY     23   5  46 S13       30.63F WCI  11
6HR MIN TEMP:   5; 6HR MAX TEMP:  23;

LACON*         SUNNY     18   3  53 E8        30.64F WCI   7
LINCOLN*       SUNNY     26  12  55 SE9       30.64F WCI  16
SPRINGFIELD    SUNNY     24   9  52 SE9       30.61F WCI  14
6HR MIN TEMP:   8; 6HR MAX TEMP:  24;

TAYLORVILLE    SUNNY     23   9  54 SE10      30.61F WCI  12
$$

ILZ033-039-045-046-055>057-062-063-281900-
EAST-CENTRAL ILLINOIS

CITY           SKY/WX    TMP DP  RH WIND       PRES   REMARKS
CHAMPAIGN      SUNNY     19   9  65 SE12      30.63F WCI   7
DANVILLE*      SUNNY     22   8  56 E5        30.62F WCI  15
RANTOUL*       SUNNY     24  11  56 SE10      30.64F WCI  14
MATTOON        FAIR      24   8  50 E13       30.61F WCI  12
PARIS*         SUNNY     24   9  51 SE6       30.65F WCI  17
$$

ILZ079-100>102-281900-
SOUTHWEST ILLINOIS

CITY           SKY/WX    TMP DP  RH WIND       PRES   REMARKS
ALTON          CLOUDY    25   7  46 E12       30.61F WCI  14
BELLEVILLE     CLOUDY    28  11  49 VRB7      30.59F WCI  21
CAHOKIA*       CLOUDY    28  10  46 SE7       30.59F WCI  21
SPARTA*        PTSUNNY   28  13  53 SE8       30.59F WCI  20
$$

ILZ064>066-069>071-074>076-080>082-084>086-088>090-092>094-281900-
SOUTH-CENTRAL ILLINOIS

CITY           SKY/WX    TMP DP  RH WIND       PRES   REMARKS
CARBONDALE     CLOUDY    29  12  49 E8        30.59F WCI  21
6HR MIN TEMP:  18; 6HR MAX TEMP:  29;

CAIRO*         CLOUDY    32  16  52 E7        30.59F WCI  26
EFFINGHAM*     CLOUDY    26   6  43 E9        30.63F WCI  16
MARION         CLOUDY    30  12  47 SE9       30.60F WCI  22
MT. VERNON     MOSUNNY   30  14  51 E9        30.60F WCI  22
CENTRALIA*     PTSUNNY   28   9  44 SE9       30.59F WCI  19
SALEM*         CLOUDY    28  10  45 SE5       30.60F WCI  23
METROPOLIS*    PTSUNNY   32  15  49 E6        30.58F WCI  26
$$

ILZ067-068-072-073-078-083-087-091-281900-
SOUTHEAST ILLINOIS

CITY           SKY/WX    TMP DP  RH WIND       PRES   REMARKS
LAWRENCEVILLE  CLOUDY    26  12  55 E12       30.65F WCI  16
FLORA*         PTSUNNY   27  10  50 E7        30.62F WCI  19
FAIRFIELD*     CLOUDY    29  13  50 E10       30.60F WCI  20
HARRISBURG*    PTSUNNY   29  15  55 E7        30.61F WCI  22
ROBINSON*      CLOUDY    28  10  46 E9        30.65F WCI  19
CARMI*         PTSUNNY   32  17  52 NE6       30.61F WCI  27
$$

ABBREVIATIONS USED IN REMARKS
   TC - TEMPERATURE IN CELSIUS
  WCI - WIND CHILL INDEX
   HX - HEAT INDEX
  VSB - VISIBILITY
$$



USA.gov is the U.S. government's official web portal to all federal, state and local government web resources and services.